Tracking 30995 objects as of 7-Jul-2025
HD Live streaming from Space Station
objects crossing your sky now

ARIANE 5 R/B

Track ARIANE 5 R/B now!


NORAD ID: 40942
Int'l Code: 2015-054C
Perigee: 225.7 km
Apogee: 29,481.0 km
Inclination: 6.5 °
Period: 512.9 minutes
Semi major axis: 21224 km
RCS: Unknown
Launch date: September 30, 2015
Source: France (FR)
Launch site: FRENCH GUIANA (FRGUI)

Note: This is a ROCKET BODY
Your satellite tracking list
Your tracking list is empty




NASA's NSSDC Master Catalog

Two Line Element Set (TLE):
1 40942U 15054C   25187.81296581  .00008881  00000-0  88460-3 0  9991
2 40942   6.4852 271.6195 6891931 238.4775  37.0066  2.80771207 89328
Source of the keplerian elements: AFSPC